White Mountain, AK

3:36 AM AKDT on March 28, 2017 (GMT -0800)
White Mountain

Weather History for PAWM - April, 2014

Change the Weather History Date:

Tuesday, April 8, 2014

  Actual Average (PAOM) Record (PAOM)
Temperature  
Mean Temperature 8 °F -  
Max Temperature 15 °F 22 °F 46 °F (1940)
Min Temperature 0 °F 6 °F -25 °F (1920)
Degree Days  
Heating Degree Days 58    
Moisture  
Dew Point -1 °F    
Average Humidity 71    
Maximum Humidity 83    
Minimum Humidity 56    
Precipitation  
Precipitation 0.00 in - - ()
Sea Level Pressure  
Sea Level Pressure 29.92 in    
Wind  
Wind Speed 9 mph (WNW)    
Max Wind Speed 14 mph    
Max Gust Speed -    
Visibility 9 miles    
Events      
Averages and records for this station are not official NWS values.
T = Trace of Precipitation, MM = Missing Value Source: NWS Daily Summary

Daily Weather History Graph

Daily Weather History Graph

Search for Another Location

Airport or City:

Trip Planner

Search our weather history database for the weather conditions in past years. The results will help you decide how hot, cold, wet, or windy it might be!

Date:

Astronomy

Apr. 08, 2014 Rise Set
Actual Time 7:44 AM AKDT 10:08 PM AKDT
Civil Twilight 6:50 AM AKDT 11:02 PM AKDT
Nautical Twilight 5:37 AM AKDT 12:17 AM AKDT
Astronomical Twilight 3:08 AM AKDT 2:22 AM AKDT
Moon 2:11 PM AKDT (4/8) 6:10 AM AKDT (4/8)
Length of Visible Light 16h 12m
Length of Day
14h 24m
Waxing Gibbous, 64% of the Moon is Illuminated
Apr 8
Waxing Gibbous
Apr 14
Full
Apr 21
Last Quarter
Apr 28
New
May 6
First Quarter

Hourly Weather History & Observations

Time (AKDT) Temp. Windchill Dew Point Humidity Pressure Visibility Wind Dir Wind Speed Gust Speed Precip Events Conditions
12:58 AM 1.9 °F -16.2 °F -2.9 °F 80% 29.90 in 10.0 mi NNW 13.8 mph - N/A   Clear
1:58 AM 1.0 °F -16.6 °F -4.0 °F 79% 29.90 in 10.0 mi NNW 12.7 mph - N/A   Clear
2:58 AM 1.0 °F -17.3 °F -4.0 °F 79% 29.91 in 10.0 mi North 13.8 mph - N/A   Clear
3:58 AM -0.0 °F -17.1 °F -5.1 °F 79% 29.91 in 10.0 mi North 11.5 mph - N/A   Clear
4:58 AM -0.0 °F -17.1 °F -5.1 °F 79% 29.91 in 10.0 mi NNW 11.5 mph - N/A   Clear
5:58 AM -0.9 °F -16.4 °F -5.1 °F 83% 29.91 in 10.0 mi North 9.2 mph - N/A   Clear
6:58 AM -0.0 °F -16.3 °F -5.1 °F 79% 29.91 in 10.0 mi North 10.4 mph - N/A   Clear
7:58 AM -0.9 °F -16.4 °F -5.1 °F 83% 29.91 in 9.0 mi NNW 9.2 mph - N/A   Clear
8:58 AM 1.0 °F -10.3 °F -4.0 °F 79% 29.91 in 9.0 mi North 5.8 mph - N/A   Clear
9:58 AM 1.9 °F -9.2 °F -2.9 °F 80% 29.91 in 8.0 mi North 5.8 mph - N/A   Clear
10:58 AM 3.9 °F -3.4 °F -2.0 °F 76% 29.91 in 8.0 mi West 3.5 mph - N/A   Clear
11:58 AM 7.0 °F -1.7 °F -2.0 °F 67% 29.92 in 9.0 mi West 4.6 mph - N/A   Clear
12:58 PM 6.1 °F -0.9 °F -2.9 °F 67% 29.93 in 9.0 mi SW 3.5 mph - N/A   Clear
1:58 PM 10.9 °F 4.7 °F -0.9 °F 59% 29.94 in 9.0 mi SSW 3.5 mph - N/A   Clear
2:08 PM 12.2 °F - -0.4 °F 57% 29.90 in 6.0 mi Calm Calm - N/A   Haze
2:58 PM 12.9 °F 3.8 °F 1.0 °F 59% 29.94 in 9.0 mi WNW 5.8 mph - N/A   Clear
3:58 PM 14.0 °F 2.0 °F 1.9 °F 59% 29.94 in 9.0 mi WSW 9.2 mph - N/A   Clear
4:58 PM 15.1 °F 4.2 °F 1.9 °F 56% 29.94 in 8.0 mi WSW 8.1 mph - N/A   Clear
5:58 PM 15.1 °F 5.2 °F 3.9 °F 61% 29.93 in 9.0 mi WSW 6.9 mph - N/A   Clear
6:58 PM 14.0 °F 2.9 °F 8.1 °F 77% 29.94 in 9.0 mi SW 8.1 mph - N/A   Partly Cloudy
7:58 PM 14.0 °F 6.5 °F 3.0 °F 62% 29.93 in 9.0 mi West 4.6 mph - N/A   Clear
8:58 PM 12.9 °F 6.9 °F 3.0 °F 65% 29.93 in 10.0 mi WNW 3.5 mph - N/A   Clear
9:58 PM 12.0 °F 4.1 °F 1.0 °F 61% 29.94 in 10.0 mi WNW 4.6 mph - N/A   Clear
10:58 PM 10.9 °F 4.7 °F 1.9 °F 67% 29.95 in 10.0 mi North 3.5 mph - N/A   Clear
11:58 PM 10.0 °F 3.6 °F 1.9 °F 70% 29.96 in 10.0 mi NNW 3.5 mph - N/A   Clear